Mineralnyye Vody Airport

Jump to: basic info | weather | frequencies | runways | comments

Related pages: nearby airports | nearby navaids | notams | map

Basic information (top)

Codes: MRV URMM
Location: lon 44.225101, lat 43.081902, elev 1,054 ft / 321 m msl
Status: medium_airport
Scheduled airline service: yes
Links: Wikipedia Mobile

Weather (top)

Current conditions (rec'd 2014/08/23 17:00Z):

URMM 231700Z 28004G06MPS 9999 BKN093 27/15 Q1015 R30/CLRD70 NOSIG RMK QFE733/0977

Airport forecast (rec'd 2014/08/23 15:00Z):

TAF URMM 231354Z 2315/2415 31003G08MPS 9999 BKN030CB T31/2412Z 
      TEMPO 2315/2324 VRB07G12MPS 3000 -TSRAGR BKN010 BKN030CB 530003 
      BECMG 2406/2408 09003G08MPS

Frequencies (top)

Verify before use: may be inaccurate or out of date.

APP: 119.3 MHz (APP)
ATIS: 127.4 MHz (ATIS)
GND: 121.9 MHz (TAXIING)
RDR: 120.7 MHz (KRUG)
TWR: 128 MHz (START)

Runways (top)

12/30: 12,795 x 197 ft (3,900 x 60 m) — paved — lighted

Latest comments (top)

No comments yet for Mineralnyye Vody Airport

More... (top)

See also NOTAMs and nearby airports and navaids, or visit the Mineralnyye Vody Airport page at the main OurAirports website..